[[{"header":{"parameterUnit":"m.s-1","parameterCategory":1,"la1":30.2991,"la2":30.254,"lo1":-89.0895,"lo2":-89.0444,"dy":0.0017,"dx":0.0017,"nx":28,"ny":28,"refTime":"2025-04-11T21:00:00:Z","depth":0,"parameterNumber":2,"parameterNumberName":"U-component_of_WINDS"},"data":[0,0,0,0,0,0,0,0,0,0,0,0,0,0,0,0,0,0,0,0,0,0,0,0,0,0,0,0,0,0,0,0,0,0,0,0,0,0,0,0,0,0,0,0,0,0,0,0,0,0,0,0,0,0,0,0,0,0,-0.7899,-0.7899,0,-0.7913,-0.7914,-0.7914,-0.7825,-0.7823,-0.782,-0.7818,-0.7837,-0.784,-0.7843,0,0,0,0,0,0,0,0,0,0,0,0,0,-0.7797,-0.7799,-0.7899,-0.7899,-0.7899,-0.7913,-0.7914,-0.7914,-0.7826,-0.7823,-0.782,-0.7817,-0.7836,-0.784,-0.7843,0,0,0,0,0,0,0,0,0,0,0,0,0,-0.7829,-0.78,-0.7899,-0.7857,-0.7853,-0.7913,-0.7914,-0.7914,-0.7826,-0.7823,-0.7819,-0.7815,-0.7835,-0.7839,-0.7844,-0.7946,0,0,-0.7857,-0.7859,0,0,0,0,0,0,0,0,-0.7828,-0.7833,-0.7863,-0.786,-0.7856,-0.7863,-0.7885,-0.7925,-0.7827,-0.7837,-0.7818,-0.7813,-0.7849,-0.7852,-0.7863,-0.7947,-0.7948,-0.7857,-0.786,-0.7862,-0.7863,0,0,0,0,0,0,0,-0.7825,-0.7832,-0.7905,-0.7863,-0.7859,-0.7838,-0.7838,-0.7892,-0.7864,-0.7836,-0.7829,-0.7832,-0.7847,-0.786,-0.7863,-0.7948,-0.7857,-0.7861,-0.7864,-0.7865,-0.8116,-0.812,0,0,0,0,0,0,-0.7828,-0.7831,-0.7904,-0.7905,-0.7832,-0.7843,-0.7843,-0.7865,-0.7863,-0.7859,-0.7835,-0.7828,-0.7854,-0.7858,-0.7864,-0.7984,-0.7862,-0.7866,-0.7868,-0.8112,-0.8117,-0.8121,0,0,0,0,0,0,-0.7826,-0.7836,-0.7904,-0.7866,-0.7873,-0.7849,-0.7874,-0.7867,-0.788,-0.7863,-0.7858,-0.7853,-0.7851,-0.7858,-0.7926,-0.7983,-0.7868,-0.7872,-0.8107,-0.8113,-0.8119,-0.8225,0,0,0,0,0,0,-0.7824,-0.7836,-0.7874,-0.7868,-0.7875,-0.7966,-0.7877,-0.787,-0.7887,-0.7878,-0.7879,-0.7875,-0.7849,-0.792,-0.793,-0.7987,-0.7875,-0.8102,-0.811,-0.8117,-0.8217,-0.8234,-0.8249,0,0,0,0,0,-0.7821,-0.7905,-0.7877,-0.7886,-0.7923,-0.7969,-0.7973,-0.794,-0.7892,-0.7931,-0.792,-0.7875,-0.7975,-0.7928,-0.7938,-0.7998,-0.8098,-0.8107,-0.8116,-0.8209,-0.8231,-0.8249,0,0,0,0,0,0,-0.7921,-0.7903,-0.7872,-0.7956,-0.7964,-0.7954,-0.8002,-0.7964,-0.7988,-0.7978,-0.7936,-0.7937,-0.8013,-0.8011,-0.796,-0.8096,-0.8028,-0.804,-0.8095,-0.8115,-0.8131,-0.8131,-0.7878,0,0,0,0,0,-0.7952,-0.799,-0.7973,-0.8049,-0.8054,-0.8028,-0.8046,-0.8019,-0.8027,-0.8031,-0.8024,-0.8035,-0.8068,-0.8091,-0.8121,-0.8215,-0.8214,-0.826,-0.8277,-0.829,-0.8302,-0.8351,-0.8372,-0.8151,-0.8151,-0.8151,0,0,-0.8019,-0.8014,-0.8041,-0.8069,-0.8072,-0.8113,-0.8031,-0.8078,-0.8109,-0.8038,-0.8102,-0.8098,-0.8106,-0.8188,-0.8223,-0.8189,-0.8362,-0.8302,-0.8313,-0.8317,-0.8363,-0.8384,-0.8403,-0.8157,-0.8156,-0.8155,0,0,-0.8161,-0.8161,-0.8224,-0.8228,-0.8233,-0.8214,-0.8229,-0.8223,-0.8217,-0.828,-0.8228,-0.8263,-0.8321,-0.8329,-0.8341,-0.8483,-0.8443,-0.8494,-0.8581,-0.8629,-0.8647,-0.8662,-0.8714,-0.8733,-0.8505,-0.8505,-0.8505,0,-0.8244,-0.8303,-0.8262,-0.8311,-0.8326,-0.8261,-0.8325,-0.8331,-0.8347,-0.8358,-0.8318,-0.8389,-0.839,-0.8473,-0.8507,-0.8518,-0.8535,-0.8495,-0.8647,-0.8662,-0.8676,-0.8725,-0.8744,-0.8511,-0.851,-0.851,-0.8509,0,-0.8404,-0.8446,-0.8496,-0.851,-0.8529,-0.8587,-0.8555,-0.8579,-0.8549,-0.8535,-0.8599,-0.8597,-0.8625,-0.8642,-0.8615,-0.8721,-0.8699,-0.8654,-0.8585,-0.8704,-0.8749,-0.8767,-0.852,-0.8518,-0.8516,-0.8514,0,0,-0.8615,-0.8602,-0.8622,-0.8627,-0.8626,-0.8658,-0.8711,-0.8736,-0.8759,-0.877,-0.8815,-0.8864,-0.8822,-0.8835,-0.8807,-0.8849,-0.8963,-0.8799,-0.8798,-0.8831,-0.908,-0.9116,-0.9138,-0.8935,-0.8938,-0.8941,-0.908,0,-0.8755,-0.8845,-0.8808,-0.8902,-0.8939,-0.8876,-0.8922,-0.8928,-0.8914,-0.8945,-0.893,-0.8966,-0.8907,-0.8914,-0.8953,-0.8941,-0.9013,-0.893,-0.8978,-0.898,-0.898,-0.9161,-0.92,-0.9331,-0.9097,-0.91,-0.9102,0,-0.8932,-0.8948,-0.9046,-0.9036,-0.9051,-0.9093,-0.9113,-0.9142,-0.9146,-0.9133,-0.9146,-0.9108,-0.916,-0.9089,-0.9161,-0.9105,-0.9122,-0.9119,-0.9123,-0.9128,-0.905,-0.9174,-0.9372,-0.9393,-0.9129,-0.9127,-0.9125,0,-0.9077,-0.9124,-0.9187,-0.9194,-0.9184,-0.9215,-0.9213,-0.9213,-0.923,-0.9247,-0.9258,-0.9281,-0.9295,-0.9314,-0.9283,-0.9234,-0.9359,-0.9286,-0.9352,-0.9353,-0.9384,-0.9383,-0.959,-0.9391,-0.939,-0.939,-0.939,0,-0.9239,-0.9302,-0.9252,-0.9292,-0.936,-0.9316,-0.9384,-0.9375,-0.9375,-0.9412,-0.9358,-0.9395,-0.9351,-0.9383,-0.9359,-0.9422,-0.9429,-0.9421,-0.9414,-0.9427,-0.9428,-0.944,-0.9431,-0.9395,-0.9394,-0.9393,-0.9392,0,-0.9415,-0.9384,-0.945,-0.9434,-0.9431,-0.9482,-0.9469,-0.9506,-0.9487,-0.9534,-0.9543,-0.9515,-0.9549,-0.952,-0.9554,-0.9538,-0.9622,-0.9601,-0.9621,-0.9616,-0.9684,-0.9679,-0.9908,-0.9936,-0.9717,-0.9719,-0.9721,0,-0.9522,-0.9568,-0.9556,-0.9576,-0.9577,-0.961,-0.9626,-0.9584,-0.9603,-0.9609,-0.9645,-0.9675,-0.9697,-0.9755,-0.9738,-0.9764,-0.9744,-0.9823,-0.9748,-0.9759,-0.9748,-0.9746,-0.9751,-0.9839,-0.9842,-0.9844,-0.9845,0,-0.9716,-0.9697,-0.9722,-0.9741,-0.9761,-0.9775,-0.9784,-0.9804,-0.976,-0.9785,-0.9819,-0.9835,-0.9868,-0.9899,-0.9918,-0.9916,-0.9875,-0.9868,-0.9885,-0.99,-0.991,-0.9907,-0.9665,-0.9864,-0.9862,-0.9861,-0.986,-0.9859,-0.9861,-0.9899,-0.9896,-0.9925,-0.9927,-0.9936,-0.9969,-0.9953,-0.998,-1.0003,-0.9976,-1.0017,-1.0018,-1.0039,-1.0042,-1.0074,-1.0042,-1.0066,-1.0073,-1.008,-1.0091,-0.9903,-1.0078,-1.0077,-1.0076,-1.0076,-1.0076,0,-1.0053,-1.0047,-1.0074,-1.0088,-1.011,-1.0065,-1.0072,-1.0095,-1.0132,-1.0135,-1.0156,-1.0195,-1.0223,-1.0207,-1.0232,-1.0261,-1.0242,-1.0269,-1.0268,-1.0268,-1.0118,-1.0101,-1.0283,-1.0283,-1.0283,-1.0283,-1.0283,-1.0283,-1.0156,-1.0218,-1.0198,-1.026,-1.0253,-1.0292,-1.03,-1.0308,-1.0311,-1.0355,-1.0378,-1.0366,-1.0362,-1.0385,-1.0409,-1.0403,-1.0416,-1.045,-1.0438,-1.0299,-1.0279,-1.0259,-1.0244,-1.0453,-1.0453,-1.0586,-1.0587,-1.0588]},{"header":{"parameterUnit":"m.s-1","parameterCategory":1,"la1":30.2991,"la2":30.254,"lo1":-89.0895,"lo2":-89.0444,"dy":0.0017,"dx":0.0017,"nx":28,"ny":28,"refTime":"2025-04-11T21:00:00:Z","depth":0,"parameterNumber":3,"parameterNumberName":"V-component_of_WINDS"},"data":[0,0,0,0,0,0,0,0,0,0,0,0,0,0,0,0,0,0,0,0,0,0,0,0,0,0,0,0,0,0,0,0,0,0,0,0,0,0,0,0,0,0,0,0,0,0,0,0,0,0,0,0,0,0,0,0,0,0,-4.8063,-4.8064,0,-4.8202,-4.8204,-4.8206,-4.8141,-4.8138,-4.8134,-4.8131,-4.8271,-4.8277,-4.8284,0,0,0,0,0,0,0,0,0,0,0,0,0,-4.7736,-4.7742,-4.8063,-4.8064,-4.8066,-4.8202,-4.8204,-4.8206,-4.8142,-4.8138,-4.8134,-4.813,-4.8268,-4.8277,-4.8285,0,0,0,0,0,0,0,0,0,0,0,0,0,-4.7877,-4.7744,-4.8062,-4.8051,-4.8051,-4.8202,-4.8204,-4.8206,-4.8143,-4.8138,-4.8132,-4.8128,-4.8266,-4.8276,-4.8286,-4.8455,0,0,-4.8318,-4.8323,0,0,0,0,0,0,0,0,-4.7869,-4.7889,-4.8051,-4.8052,-4.8053,-4.8149,-4.814,-4.829,-4.8144,-4.8108,-4.8131,-4.8125,-4.8234,-4.8247,-4.8285,-4.8462,-4.8468,-4.8319,-4.8325,-4.833,-4.8333,0,0,0,0,0,0,0,-4.7859,-4.7883,-4.8118,-4.8053,-4.8054,-4.8037,-4.8051,-4.8168,-4.8199,-4.8111,-4.8106,-4.8124,-4.8234,-4.8275,-4.8287,-4.847,-4.8319,-4.8328,-4.8334,-4.8338,-4.879,-4.8796,0,0,0,0,0,0,-4.785,-4.7875,-4.8113,-4.8122,-4.7946,-4.8047,-4.8063,-4.8123,-4.8197,-4.8204,-4.8128,-4.8121,-4.8259,-4.8275,-4.8292,-4.8494,-4.833,-4.8339,-4.8345,-4.8784,-4.8791,-4.8798,0,0,0,0,0,0,-4.7844,-4.7872,-4.8108,-4.7997,-4.8026,-4.8058,-4.8127,-4.8129,-4.817,-4.8211,-4.8215,-4.8165,-4.8256,-4.8277,-4.8415,-4.8498,-4.8344,-4.8354,-4.8778,-4.8787,-4.8795,-4.8899,0,0,0,0,0,0,-4.7834,-4.787,-4.7936,-4.7999,-4.8032,-4.823,-4.8132,-4.8135,-4.8188,-4.818,-4.8246,-4.8252,-4.8253,-4.84,-4.8425,-4.8509,-4.8362,-4.877,-4.8782,-4.8792,-4.8889,-4.891,-4.8929,0,0,0,0,0,-4.7823,-4.796,-4.794,-4.7969,-4.8116,-4.8235,-4.8254,-4.8254,-4.8195,-4.8261,-4.8287,-4.825,-4.8484,-4.8414,-4.8443,-4.8531,-4.8765,-4.8778,-4.8791,-4.8879,-4.8906,-4.8929,0,0,0,0,0,0,-4.7905,-4.7968,-4.7947,-4.8108,-4.8167,-4.8224,-4.8307,-4.8282,-4.8358,-4.8346,-4.8341,-4.8357,-4.8499,-4.8528,-4.8449,-4.8697,-4.8616,-4.8635,-4.8673,-4.8699,-4.8719,-4.8708,-4.8371,0,0,0,0,0,-4.7942,-4.8035,-4.8084,-4.8222,-4.8253,-4.8275,-4.8327,-4.8322,-4.8382,-4.8406,-4.8442,-4.8501,-4.8587,-4.8644,-4.8727,-4.8892,-4.8905,-4.8966,-4.8987,-4.9003,-4.902,-4.9107,-4.9135,-4.884,-4.884,-4.884,0,0,-4.8019,-4.8065,-4.8124,-4.824,-4.8285,-4.838,-4.8297,-4.8401,-4.8471,-4.8422,-4.8554,-4.8582,-4.8647,-4.8799,-4.8868,-4.8828,-4.9104,-4.902,-4.9032,-4.904,-4.9124,-4.9151,-4.9176,-4.8849,-4.8847,-4.8846,0,0,-4.8208,-4.8253,-4.8372,-4.8418,-4.8488,-4.8501,-4.853,-4.8591,-4.8608,-4.8741,-4.8705,-4.8787,-4.8937,-4.8984,-4.9028,-4.9232,-4.9201,-4.9259,-4.9365,-4.9451,-4.9474,-4.9494,-4.9566,-4.9592,-4.9275,-4.9276,-4.9276,0,-4.8295,-4.8439,-4.8436,-4.8543,-4.8594,-4.8554,-4.8674,-4.8718,-4.8811,-4.8846,-4.88,-4.8986,-4.9027,-4.9189,-4.9238,-4.9276,-4.9306,-4.9252,-4.9471,-4.9492,-4.9511,-4.9579,-4.9606,-4.9282,-4.9282,-4.9281,-4.928,0,-4.8541,-4.8641,-4.8728,-4.8819,-4.888,-4.8993,-4.9005,-4.9067,-4.9055,-4.9073,-4.9208,-4.9255,-4.9345,-4.9383,-4.9373,-4.9543,-4.9516,-4.9471,-4.9389,-4.9545,-4.961,-4.9636,-4.9292,-4.9289,-4.9287,-4.9286,0,0,-4.8787,-4.8874,-4.8906,-4.8946,-4.9018,-4.9095,-4.9204,-4.9293,-4.9345,-4.9409,-4.95,-4.9627,-4.9585,-4.9635,-4.9629,-4.9705,-4.9862,-4.965,-4.9651,-4.9687,-5.005,-5.0083,-5.0114,-4.9841,-4.9846,-4.985,-5.0044,0,-4.8981,-4.9175,-4.9175,-4.9354,-4.9444,-4.9407,-4.9502,-4.9555,-4.9575,-4.9653,-4.9673,-4.9763,-4.9701,-4.9731,-4.9804,-4.9828,-4.9935,-4.9813,-4.9924,-4.9928,-4.9909,-5.0148,-5.0184,-5.0365,-5.007,-5.0074,-5.0077,0,-4.9234,-4.9307,-4.9495,-4.9552,-4.959,-4.9676,-4.9757,-4.9833,-4.9892,-4.99,-4.9955,-4.9937,-5.0046,-4.9961,-5.011,-5.0028,-5.0072,-5.0091,-5.0098,-5.0108,-5.0012,-5.0164,-5.0423,-5.045,-5.0117,-5.0113,-5.0111,0,-4.9394,-4.9539,-4.9669,-4.9704,-4.9775,-4.9836,-4.9868,-4.9922,-4.9975,-5.0044,-5.0078,-5.0159,-5.0204,-5.0266,-5.027,-5.0207,-5.042,-5.0335,-5.0429,-5.0429,-5.0476,-5.0473,-5.0745,-5.0505,-5.0505,-5.0504,-5.0504,0,-4.961,-4.9727,-4.9742,-4.9822,-4.995,-4.9948,-5.0074,-5.01,-5.0148,-5.0231,-5.0203,-5.0281,-5.0282,-5.0361,-5.0364,-5.0487,-5.0507,-5.0516,-5.0515,-5.0518,-5.0517,-5.0548,-5.0535,-5.0511,-5.051,-5.0508,-5.0507,0,-4.9811,-4.9826,-4.9966,-5.0021,-5.0037,-5.0129,-5.0175,-5.0251,-5.0266,-5.0372,-5.0396,-5.042,-5.0512,-5.0522,-5.0628,-5.063,-5.0778,-5.0764,-5.0759,-5.0756,-5.0849,-5.084,-5.1151,-5.1191,-5.0925,-5.0927,-5.0929,0,-4.9948,-5.0037,-5.0101,-5.0155,-5.0191,-5.0278,-5.0332,-5.0332,-5.0389,-5.0462,-5.0528,-5.0617,-5.0688,-5.0836,-5.0862,-5.0943,-5.093,-5.1033,-5.0942,-5.0942,-5.0931,-5.0925,-5.0933,-5.1051,-5.1054,-5.1056,-5.1058,0,-5.019,-5.0193,-5.0272,-5.0354,-5.0419,-5.0483,-5.0543,-5.0588,-5.0595,-5.066,-5.0754,-5.081,-5.0918,-5.1006,-5.1085,-5.1115,-5.1088,-5.1087,-5.1112,-5.1117,-5.111,-5.1114,-5.0807,-5.108,-5.1078,-5.1076,-5.1075,-5.1074,-5.0363,-5.0439,-5.0496,-5.0585,-5.063,-5.0686,-5.0759,-5.0784,-5.0862,-5.0952,-5.0946,-5.1049,-5.1103,-5.1207,-5.1243,-5.1322,-5.1288,-5.1325,-5.1335,-5.1344,-5.1353,-5.1097,-5.1337,-5.1336,-5.1335,-5.1335,-5.1335,0,-5.0602,-5.0637,-5.0718,-5.0803,-5.0873,-5.0841,-5.0905,-5.0965,-5.1056,-5.111,-5.118,-5.1287,-5.1372,-5.1404,-5.1486,-5.1543,-5.1532,-5.1565,-5.156,-5.1568,-5.138,-5.1349,-5.1572,-5.1572,-5.1572,-5.1572,-5.1572,-5.1572,-5.0735,-5.0862,-5.0871,-5.1019,-5.1052,-5.1154,-5.1193,-5.1244,-5.1287,-5.1408,-5.1478,-5.1499,-5.1543,-5.1628,-5.1703,-5.171,-5.1741,-5.1779,-5.1781,-5.1605,-5.1581,-5.1558,-5.1529,-5.1786,-5.1787,-5.1962,-5.1963,-5.1965]}]]